Station HBYC1 - 9418767 - North Spit, CA Image indicating link to RSS feed of recent meteorological observations for station HBYC1


Conditions at HBYC1 as of
(11:36 pm PDT on 06/14/2024)
0636 GMT on 06/15/2024:
     

Click on the graph icon in the table below to see a time series plot of the last five days of that observation.

5-day plot - Water Temperature Water Temperature (WTMP): 50.2 °F
NOS Water Level Observation Network Water Level
Previous observations
TIME
(PDT)
5-day plot - Wind Direction
WDIR
 
5-day plot - Wind Speed
WSPD
kts
5-day plot - Wind Gust
GST
kts
5-day plot - Wave Height
WVHT
ft
5-day plot - Dominant Wave Period
DPD
sec
5-day plot - Average Wave Period
APD
sec
5-day plot - Mean Wave Direction
MWD
 
5-day plot - Atmospheric Pressure
PRES
in
5-day plot - Pressure Tendency
PTDY
in
5-day plot - Air Temperature
ATMP
°F
5-day plot - Water Temperature
WTMP
°F
5-day plot - Dew Point
DEWP
°F
5-day plot - Salinity
SAL
psu
5-day plot - Visibility
VIS
nmi
5-day plot - Tide (above MLLW)
TIDE
ft
2024-06-14 11:30 pm---------- 50.2----
2024-06-14 11:24 pm---------- 50.2----
2024-06-14 11:18 pm---------- 50.2----
2024-06-14 11:12 pm---------- 50.2----
2024-06-14 11:06 pm---------- 50.2----
2024-06-14 11:00 pm---------- 50.2----
2024-06-14 10:54 pm---------- 50.2----
2024-06-14 10:48 pm---------- 50.2----
2024-06-14 10:42 pm---------- 50.2----
2024-06-14 10:36 pm-------30.21-- 50.2----
2024-06-14 10:30 pm-------30.21-- 50.2----
2024-06-14 10:24 pm-------30.21-- 50.2----
2024-06-14 10:18 pm-------30.21-- 50.2----
2024-06-14 10:12 pm-------30.21-- 50.2----
2024-06-14 10:06 pm-------30.21-- 50.2----
2024-06-14 10:00 pm-------30.21+0.01- 50.2----
2024-06-14 09:54 pm-------30.20-- 50.0----
2024-06-14 09:48 pm-------30.20-- 50.0----
2024-06-14 09:42 pm-------30.20-- 50.0----
2024-06-14 09:36 pm-------30.20-- 50.2----
2024-06-14 09:30 pm-------30.20-- 50.2----
2024-06-14 09:24 pm-------30.20-- 50.0----
2024-06-14 09:18 pm-------30.20-- 49.6----
2024-06-14 09:12 pm-------30.20-- 49.1----
2024-06-14 09:06 pm-------30.19-- 48.7----
2024-06-14 09:00 pm-------30.19+0.00- 48.7----
2024-06-14 08:54 pm-------30.19-- 48.7----
2024-06-14 08:48 pm-------30.19-- 48.7----
2024-06-14 08:42 pm-------30.19-- 48.6----
2024-06-14 08:36 pm-------30.19-- 48.6----
2024-06-14 08:30 pm-------30.19-- 48.6----
2024-06-14 08:24 pm-------30.19-- 48.6----
2024-06-14 08:18 pm-------30.19-- 48.6----
2024-06-14 08:12 pm-------30.19-- 48.7----
2024-06-14 08:06 pm-------30.19-- 48.7----
2024-06-14 08:00 pm-------30.19+0.00- 48.7----
2024-06-14 07:54 pm-------30.19-- 48.7----
2024-06-14 07:48 pm-------30.19-- 48.7----
2024-06-14 07:42 pm-------30.20-- 48.7----
2024-06-14 07:36 pm-------30.19-- 48.7----
2024-06-14 07:30 pm-------30.19-- 48.7----
2024-06-14 07:24 pm-------30.19-- 48.9----
2024-06-14 07:18 pm-------30.19-- 49.1----
2024-06-14 07:12 pm-------30.19-- 49.1----
2024-06-14 07:06 pm-------30.19-- 49.1----
2024-06-14 07:00 pm-------30.19-0.02- 49.1----
2024-06-14 06:54 pm-------30.19-- 49.1----
2024-06-14 06:48 pm-------30.19-- 49.1----
2024-06-14 06:42 pm-------30.19-- 49.3----
2024-06-14 06:36 pm-------30.19-- 49.5----
2024-06-14 06:30 pm-------30.19-- 49.6----
2024-06-14 06:24 pm-------30.19-- 49.8----
2024-06-14 06:18 pm-------30.20-- 50.0----
2024-06-14 06:12 pm-------30.20-- 50.0----
2024-06-14 06:06 pm-------30.19-- 50.2----
2024-06-14 06:00 pm-------30.20-0.01- 50.4----
2024-06-14 05:54 pm-------30.20-- 50.7----
2024-06-14 05:48 pm-------30.20-- 50.5----
2024-06-14 05:42 pm-------30.20-- 50.7----
2024-06-14 05:36 pm-------30.20-- 51.1----
2024-06-14 05:30 pm-------30.20-- 50.9----
2024-06-14 05:24 pm-------30.20-- 51.6----
2024-06-14 05:18 pm-------30.20-- 52.0----
2024-06-14 05:12 pm-------30.20-- 52.7----
2024-06-14 05:06 pm-------30.20-- 53.1----
2024-06-14 05:00 pm-------30.20-0.01- 53.4----
2024-06-14 04:54 pm-------30.20-- 53.6----
2024-06-14 04:48 pm-------30.20-- 54.3----
2024-06-14 04:42 pm-------30.20-- 54.3----
2024-06-14 04:36 pm-------30.20-- 54.5----
2024-06-14 04:30 pm-------30.20-- 54.9----
2024-06-14 04:24 pm-------30.20-- 54.9----
2024-06-14 04:18 pm-------30.20-- 54.7----
2024-06-14 04:12 pm-------30.21-- 54.9----
2024-06-14 04:06 pm-------30.21-- 54.9----
2024-06-14 04:00 pm-------30.21+0.00- 54.3----
2024-06-14 03:54 pm-------30.20-- 54.3----
2024-06-14 03:48 pm-------30.20-- 54.7----
2024-06-14 03:42 pm-------30.20-- 54.7----
2024-06-14 03:36 pm-------30.20-- 54.7----
2024-06-14 03:30 pm-------30.20-- 54.7----
2024-06-14 03:24 pm-------30.20-- 55.0----
2024-06-14 03:18 pm-------30.21-- 55.2----
2024-06-14 03:12 pm-------30.21-- 55.6----
2024-06-14 03:06 pm-------30.21-- 55.6----
2024-06-14 03:00 pm-------30.21+0.00- 55.4----
2024-06-14 02:54 pm-------30.21-- 56.1----
2024-06-14 02:48 pm-------30.21-- 56.3----
2024-06-14 02:42 pm-------30.21-- 56.3----
2024-06-14 02:36 pm-------30.21-- 56.3----
2024-06-14 02:30 pm-------30.22-- 56.1----
2024-06-14 02:24 pm-------30.22-- 56.5----
2024-06-14 02:18 pm-------30.22-- 56.5----
2024-06-14 02:12 pm-------30.21-- 56.5----
2024-06-14 02:06 pm-------30.22-- 56.5----
2024-06-14 02:00 pm-------30.21+0.01- 56.3----
2024-06-14 01:54 pm-------30.21-- 56.1----
2024-06-14 01:48 pm-------30.21-- 55.6----
2024-06-14 01:42 pm-------30.21-- 55.8----
2024-06-14 01:36 pm-------30.21-- 55.6----
2024-06-14 01:30 pm-------30.21-- 55.9----
2024-06-14 01:24 pm-------30.21-- 55.6----
2024-06-14 01:18 pm-------30.21-- 55.4----
2024-06-14 01:12 pm-------30.22-- 55.2----
2024-06-14 01:06 pm-------30.22-- 55.2----
2024-06-14 01:00 pm-------30.21+0.02- 55.6----
2024-06-14 12:54 pm-------30.21-- 54.9----
2024-06-14 12:48 pm-------30.21-- 54.9----
2024-06-14 12:42 pm-------30.22-- 54.9----
2024-06-14 12:36 pm-------30.22-- 55.0----
2024-06-14 12:30 pm-------30.22-- 54.7----
2024-06-14 12:24 pm-------30.22-- 54.3----
2024-06-14 12:18 pm-------30.22-- 54.5----
2024-06-14 12:12 pm-------30.22-- 54.3----
2024-06-14 12:06 pm-------30.22-- 54.5----
2024-06-14 12:00 pm-------30.21+0.02- 54.3----
2024-06-14 11:54 am-------30.22-- 54.3----
2024-06-14 11:48 am-------30.20-- 54.5----
2024-06-14 11:42 am-------30.21-- 54.1----
2024-06-14 11:36 am-------30.21-- 54.0----
2024-06-14 11:30 am-------30.21-- 53.8----
2024-06-14 11:24 am-------30.20-- 53.4----
2024-06-14 11:18 am-------30.20-- 53.1----
2024-06-14 11:12 am-------30.20-- 52.9----
2024-06-14 11:06 am-------30.20-- 52.7----
2024-06-14 11:00 am-------30.20+0.03- 52.5----
2024-06-14 10:54 am-------30.20-- 52.2----
2024-06-14 10:48 am-------30.20-- 51.6----
2024-06-14 10:42 am-------30.20-- 52.0----
2024-06-14 10:36 am-------30.19-- 51.6----
2024-06-14 10:30 am-------30.19-- 51.4----
2024-06-14 10:24 am-------30.19-- 51.6----
2024-06-14 10:18 am-------30.19-- 51.8----
2024-06-14 10:12 am-------30.19-- 51.6----
2024-06-14 10:06 am-------30.19-- 51.4----
2024-06-14 10:00 am-------30.19+0.04- 51.4----
2024-06-14 09:54 am-------30.20-- 51.4----
2024-06-14 09:48 am-------30.20-- 51.6----
2024-06-14 09:42 am-------30.20-- 51.6----
2024-06-14 09:36 am-------30.20-------
2024-06-14 09:30 am-------30.20-------
2024-06-14 09:24 am-------30.20-------
2024-06-14 09:18 am-------30.20-------
2024-06-14 09:12 am-------30.20-------
2024-06-14 09:06 am-------30.19-------
2024-06-14 09:00 am-------30.19+0.04------
2024-06-14 08:54 am-------30.19-------
2024-06-14 08:48 am-------30.19-------
2024-06-14 08:42 am-------30.19-------
2024-06-14 08:36 am-------30.19-- 51.6----
2024-06-14 08:30 am-------30.18-- 52.0----
2024-06-14 08:24 am-------30.18-- 51.4----
2024-06-14 08:18 am-------30.18-- 51.6----
2024-06-14 08:12 am-------30.18-- 52.0----
2024-06-14 08:06 am-------30.18-- 52.0----
2024-06-14 08:00 am-------30.17+0.02- 52.0----
2024-06-14 07:54 am-------30.17-- 51.8----
2024-06-14 07:48 am-------30.16-- 52.0----
2024-06-14 07:42 am-------30.16-- 51.8----
2024-06-14 07:36 am-------30.16-- 51.8----
2024-06-14 07:30 am-------30.15-- 51.8----
2024-06-14 07:24 am-------30.15-- 51.8----
2024-06-14 07:18 am-------30.16-- 51.8----
2024-06-14 07:12 am-------30.16-- 51.8----
2024-06-14 07:06 am-------30.16-- 51.8----
2024-06-14 07:00 am-------30.15+0.01- 51.8----
2024-06-14 06:36 am-------30.15-- 52.2----
2024-06-14 06:30 am-------30.15-- 52.2----
2024-06-14 06:24 am-------30.14-- 52.0----
2024-06-14 06:18 am-------30.14-- 52.0----
2024-06-14 06:12 am-------30.15-- 52.0----
2024-06-14 06:06 am-------30.15-- 52.0----
2024-06-14 06:00 am-------30.15+0.01- 52.2----
2024-06-14 05:54 am-------30.15-- 52.2----
2024-06-14 05:48 am-------30.15-- 52.3----
2024-06-14 05:42 am-------30.16-- 52.3----
2024-06-14 05:36 am-------30.16-- 52.5----
2024-06-14 05:30 am-------30.15-- 52.5----
2024-06-14 05:24 am-------30.15-- 52.7----
2024-06-14 05:18 am-------30.15-- 52.7----
2024-06-14 05:12 am-------30.16-- 52.7----
2024-06-14 05:06 am-------30.16-- 52.9----
2024-06-14 05:00 am-------30.16+0.00- 53.1----
2024-06-14 04:54 am-------30.15-- 53.1----
2024-06-14 04:48 am-------30.15-- 53.1----
2024-06-14 04:42 am-------30.15-- 53.2----
2024-06-14 04:36 am-------30.15-- 53.2----
2024-06-14 04:30 am-------30.15-- 53.2----
2024-06-14 04:24 am-------30.15-- 53.4----
2024-06-14 04:18 am-------30.15-- 53.4----
2024-06-14 04:12 am-------30.15-- 53.6----
2024-06-14 04:06 am-------30.14-- 53.8----
2024-06-14 04:00 am-------30.14-0.03- 53.8----
2024-06-14 03:54 am-------30.14-- 54.0----
2024-06-14 03:48 am-------30.14-- 54.0----
2024-06-14 03:42 am-------30.14-- 54.1----
2024-06-14 03:36 am-------30.14-- 54.5----
2024-06-14 03:30 am-------30.14-- 54.7----
2024-06-14 03:24 am-------30.14-- 54.7----
2024-06-14 03:18 am-------30.14-- 54.7----
2024-06-14 03:12 am-------30.14-- 54.7----
2024-06-14 03:06 am-------30.14-- 54.7----
2024-06-14 03:00 am-------30.14-0.03- 54.7----
2024-06-14 02:54 am-------30.14-- 54.7----
2024-06-14 02:48 am-------30.15-- 54.7----
2024-06-14 02:42 am-------30.15-- 54.9----
2024-06-14 02:36 am-------30.15-- 54.9----
2024-06-14 02:30 am-------30.15-- 54.9----
2024-06-14 02:24 am-------30.15-- 54.7----
2024-06-14 02:18 am-------30.15-- 54.7----
2024-06-14 02:12 am-------30.15-- 54.5----
2024-06-14 02:06 am-------30.15-- 54.5----
2024-06-14 02:00 am-------30.15-0.02- 54.3----
2024-06-14 01:54 am-------30.16-- 54.3----
2024-06-14 01:48 am-------30.16-- 54.3----
2024-06-14 01:42 am-------30.16-- 54.1----
2024-06-14 01:36 am-------30.16-- 54.0----
2024-06-14 01:30 am-------30.16-- 54.1----
2024-06-14 01:24 am-------30.16-- 54.0----
2024-06-14 01:18 am-------30.17-- 54.0----
2024-06-14 01:12 am-------30.17-- 53.4----
2024-06-14 01:06 am-------30.17-- 53.2----
2024-06-14 01:00 am-------30.17+0.02- 53.1----
2024-06-14 12:54 am-------30.17-- 53.1----
2024-06-14 12:48 am-------30.18-- 52.9----
2024-06-14 12:42 am-------30.18-- 52.9----
2024-06-14 12:36 am-------30.18-- 52.7----
2024-06-14 12:30 am-------30.18-- 52.5----
2024-06-14 12:24 am-------30.18-- 52.5----
2024-06-14 12:18 am-------30.18-- 52.5----
2024-06-14 12:12 am-------30.17-- 52.3----
2024-06-14 12:06 am-------30.17-- 52.2----
2024-06-14 12:00 am-------30.17+0.02- 52.0----
2024-06-13 11:54 pm-------30.17-- 52.0----